Year,Month,Day,Hour,Minute,Value (Times are PST for temperature in C)
2015,09,23,00,00,9.50
2015,09,23,00,01,9.50
2015,09,23,00,02,9.50
2015,09,23,00,03,9.50
2015,09,23,00,04,9.60
2015,09,23,00,05,9.60
2015,09,23,00,06,9.60
2015,09,23,00,07,9.60
2015,09,23,00,08,9.60
2015,09,23,00,09,9.60
2015,09,23,00,10,9.60
2015,09,23,00,11,9.50
2015,09,23,00,12,9.50
2015,09,23,00,13,9.50
2015,09,23,00,14,9.50
2015,09,23,00,15,9.50
2015,09,23,00,16,9.50
2015,09,23,00,17,9.50
2015,09,23,00,18,9.50
2015,09,23,00,19,9.40
2015,09,23,00,20,9.40
2015,09,23,00,21,9.40
2015,09,23,00,22,9.40
2015,09,23,00,23,9.40
2015,09,23,00,24,9.40
2015,09,23,00,25,9.40
2015,09,23,00,26,9.40
2015,09,23,00,27,9.40
2015,09,23,00,28,9.30
2015,09,23,00,29,9.30
2015,09,23,00,30,9.30
2015,09,23,00,31,9.30
2015,09,23,00,32,9.30
2015,09,23,00,33,9.30
2015,09,23,00,34,9.30
2015,09,23,00,35,9.30
2015,09,23,00,36,9.30
2015,09,23,00,37,9.30
2015,09,23,00,38,9.30
2015,09,23,00,39,9.30
2015,09,23,00,40,9.30
2015,09,23,00,41,9.30
2015,09,23,00,42,9.30
2015,09,23,00,43,9.30
2015,09,23,00,44,9.30
2015,09,23,00,45,9.30
2015,09,23,00,46,9.30
2015,09,23,00,47,9.30
2015,09,23,00,48,9.30
2015,09,23,00,49,9.30
2015,09,23,00,50,9.20
2015,09,23,00,51,9.20
2015,09,23,00,52,9.20
2015,09,23,00,53,9.20
2015,09,23,00,54,9.20
2015,09,23,00,55,9.20
2015,09,23,00,56,9.20
2015,09,23,00,57,9.20
2015,09,23,00,58,9.20
2015,09,23,00,59,9.20
2015,09,23,01,00,9.10
2015,09,23,01,01,9.10
2015,09,23,01,02,9.10
2015,09,23,01,03,9.20
2015,09,23,01,04,9.20
2015,09,23,01,05,9.20
2015,09,23,01,06,9.20
2015,09,23,01,07,9.20
2015,09,23,01,08,9.20
2015,09,23,01,09,9.20
2015,09,23,01,10,9.20
2015,09,23,01,11,9.20
2015,09,23,01,12,9.20
2015,09,23,01,13,9.20
2015,09,23,01,14,9.10
2015,09,23,01,15,9.10
2015,09,23,01,16,9.10
2015,09,23,01,17,9.10
2015,09,23,01,18,9.10
2015,09,23,01,19,9.10
2015,09,23,01,20,9.10
2015,09,23,01,21,9.10
2015,09,23,01,22,9.10
2015,09,23,01,23,9.10
2015,09,23,01,24,9.10
2015,09,23,01,25,9.10
2015,09,23,01,26,9.00
2015,09,23,01,27,8.90
2015,09,23,01,28,8.90
2015,09,23,01,29,8.90
2015,09,23,01,30,8.80
2015,09,23,01,31,8.80
2015,09,23,01,32,8.80
2015,09,23,01,33,8.80
2015,09,23,01,34,8.80
2015,09,23,01,35,8.80
2015,09,23,01,36,8.70
2015,09,23,01,37,8.70
2015,09,23,01,38,8.70
2015,09,23,01,39,8.70
2015,09,23,01,40,8.70
2015,09,23,01,41,8.60
2015,09,23,01,42,8.60
2015,09,23,01,43,8.60
2015,09,23,01,44,8.60
2015,09,23,01,45,8.70
2015,09,23,01,46,8.80
2015,09,23,01,47,8.80
2015,09,23,01,48,8.80
2015,09,23,01,49,8.80
2015,09,23,01,50,8.80
2015,09,23,01,51,8.80
2015,09,23,01,52,8.80
2015,09,23,01,53,8.70
2015,09,23,01,54,8.70
2015,09,23,01,55,8.60
2015,09,23,01,56,8.60
2015,09,23,01,57,8.60
2015,09,23,01,58,8.60
2015,09,23,01,59,8.60
2015,09,23,02,00,8.50
2015,09,23,02,01,8.50
2015,09,23,02,02,8.50
2015,09,23,02,03,8.60
2015,09,23,02,04,8.60
2015,09,23,02,05,8.60
2015,09,23,02,06,8.60
2015,09,23,02,07,8.60
2015,09,23,02,08,8.60
2015,09,23,02,09,8.70
2015,09,23,02,10,8.70
2015,09,23,02,11,8.70
2015,09,23,02,12,8.70
2015,09,23,02,13,8.70
2015,09,23,02,14,8.60
2015,09,23,02,15,8.60
2015,09,23,02,16,8.60
2015,09,23,02,17,8.50
2015,09,23,02,18,8.50
2015,09,23,02,19,8.40
2015,09,23,02,20,8.40
2015,09,23,02,21,8.40
2015,09,23,02,22,8.40
2015,09,23,02,23,8.40
2015,09,23,02,24,8.30
2015,09,23,02,25,8.30
2015,09,23,02,26,8.30
2015,09,23,02,27,8.30
2015,09,23,02,28,8.40
2015,09,23,02,29,8.40
2015,09,23,02,30,8.40
2015,09,23,02,31,8.50
2015,09,23,02,32,8.60
2015,09,23,02,33,8.60
2015,09,23,02,34,8.60
2015,09,23,02,35,8.50
2015,09,23,02,36,8.50
2015,09,23,02,37,8.40
2015,09,23,02,38,8.40
2015,09,23,02,39,8.30
2015,09,23,02,40,8.30
2015,09,23,02,41,8.30
2015,09,23,02,42,8.30
2015,09,23,02,43,8.30
2015,09,23,02,44,8.40
2015,09,23,02,45,8.50
2015,09,23,02,46,8.50
2015,09,23,02,47,8.40
2015,09,23,02,48,8.40
2015,09,23,02,49,8.40
2015,09,23,02,50,8.30
2015,09,23,02,51,8.30
2015,09,23,02,52,8.30
2015,09,23,02,53,8.30
2015,09,23,02,54,8.30
2015,09,23,02,55,8.30
2015,09,23,02,56,8.30
2015,09,23,02,57,8.30
2015,09,23,02,58,8.30
2015,09,23,02,59,8.30
2015,09,23,03,00,8.20
2015,09,23,03,01,8.20
2015,09,23,03,02,8.20
2015,09,23,03,03,8.20
2015,09,23,03,04,8.20
2015,09,23,03,05,8.20
2015,09,23,03,06,8.20
2015,09,23,03,07,8.20
2015,09,23,03,08,8.20
2015,09,23,03,09,8.20
2015,09,23,03,10,8.10
2015,09,23,03,11,8.10
2015,09,23,03,12,8.10
2015,09,23,03,13,8.20
2015,09,23,03,14,8.20
2015,09,23,03,15,8.20
2015,09,23,03,16,8.20
2015,09,23,03,17,8.20
2015,09,23,03,18,8.10
2015,09,23,03,19,8.10
2015,09,23,03,20,8.00
2015,09,23,03,21,8.00
2015,09,23,03,22,8.00
2015,09,23,03,23,8.00
2015,09,23,03,24,8.00
2015,09,23,03,25,8.10
2015,09,23,03,26,8.10
2015,09,23,03,27,8.00
2015,09,23,03,28,8.00
2015,09,23,03,29,7.90
2015,09,23,03,30,7.90
2015,09,23,03,31,7.80
2015,09,23,03,32,7.80
2015,09,23,03,33,7.80
2015,09,23,03,34,7.90
2015,09,23,03,35,7.90
2015,09,23,03,36,7.90
2015,09,23,03,37,7.90
2015,09,23,03,38,7.90
2015,09,23,03,39,7.80
2015,09,23,03,40,7.80
2015,09,23,03,41,7.80
2015,09,23,03,42,7.70
2015,09,23,03,43,7.70
2015,09,23,03,44,7.70
2015,09,23,03,45,7.70
2015,09,23,03,46,7.80
2015,09,23,03,47,7.90
2015,09,23,03,48,8.00
2015,09,23,03,49,8.10
2015,09,23,03,50,8.00
2015,09,23,03,51,8.00
2015,09,23,03,52,7.90
2015,09,23,03,53,7.90
2015,09,23,03,54,7.90
2015,09,23,03,55,8.00
2015,09,23,03,56,8.00
2015,09,23,03,57,8.00
2015,09,23,03,58,8.00
2015,09,23,03,59,7.90
2015,09,23,04,00,7.90
2015,09,23,04,01,7.80
2015,09,23,04,02,7.80
2015,09,23,04,03,7.80
2015,09,23,04,04,7.70
2015,09,23,04,05,7.70
2015,09,23,04,06,7.70
2015,09,23,04,07,7.60
2015,09,23,04,08,7.60
2015,09,23,04,09,7.60
2015,09,23,04,10,7.60
2015,09,23,04,11,7.60
2015,09,23,04,12,7.60
2015,09,23,04,13,7.60
2015,09,23,04,14,7.60
2015,09,23,04,15,7.50
2015,09,23,04,16,7.50
2015,09,23,04,17,7.40
2015,09,23,04,18,7.40
2015,09,23,04,19,7.40
2015,09,23,04,20,7.30
2015,09,23,04,21,7.30
2015,09,23,04,22,7.30
2015,09,23,04,23,7.30
2015,09,23,04,24,7.30
2015,09,23,04,25,7.40
2015,09,23,04,26,7.40
2015,09,23,04,27,7.40
2015,09,23,04,28,7.50
2015,09,23,04,29,7.50
2015,09,23,04,30,7.50
2015,09,23,04,31,7.40
2015,09,23,04,32,7.40
2015,09,23,04,33,7.40
2015,09,23,04,34,7.40
2015,09,23,04,35,7.40
2015,09,23,04,36,7.40
2015,09,23,04,37,7.40
2015,09,23,04,38,7.30
2015,09,23,04,39,7.30
2015,09,23,04,40,7.30
2015,09,23,04,41,7.40
2015,09,23,04,42,7.40
2015,09,23,04,43,7.50
2015,09,23,04,44,7.50
2015,09,23,04,45,7.60
2015,09,23,04,46,7.50
2015,09,23,04,47,7.40
2015,09,23,04,48,7.40
2015,09,23,04,49,7.30
2015,09,23,04,50,7.20
2015,09,23,04,51,7.20
2015,09,23,04,52,7.20
2015,09,23,04,53,7.20
2015,09,23,04,54,7.10
2015,09,23,04,55,7.10
2015,09,23,04,56,7.10
2015,09,23,04,57,7.10
2015,09,23,04,58,7.10
2015,09,23,04,59,7.10
2015,09,23,05,00,7.10
2015,09,23,05,01,7.10
2015,09,23,05,02,7.20
2015,09,23,05,03,7.20
2015,09,23,05,04,7.20
2015,09,23,05,05,7.20
2015,09,23,05,06,7.30
2015,09,23,05,07,7.30
2015,09,23,05,08,7.30
2015,09,23,05,09,7.20
2015,09,23,05,10,7.20
2015,09,23,05,11,7.20
2015,09,23,05,12,7.20
2015,09,23,05,13,7.20
2015,09,23,05,14,7.20
2015,09,23,05,15,7.20
2015,09,23,05,16,7.20
2015,09,23,05,17,7.20
2015,09,23,05,18,7.30
2015,09,23,05,19,7.20
2015,09,23,05,20,7.20
2015,09,23,05,21,7.20
2015,09,23,05,22,7.10
2015,09,23,05,23,7.10
2015,09,23,05,24,7.00
2015,09,23,05,25,7.00
2015,09,23,05,26,7.00
2015,09,23,05,27,7.10
2015,09,23,05,28,7.10
2015,09,23,05,29,7.10
2015,09,23,05,30,7.10
2015,09,23,05,31,7.10
2015,09,23,05,32,7.00
2015,09,23,05,33,7.10
2015,09,23,05,34,7.20
2015,09,23,05,35,7.30
2015,09,23,05,36,7.40
2015,09,23,05,37,7.40
2015,09,23,05,38,7.40
2015,09,23,05,39,7.40
2015,09,23,05,40,7.30
2015,09,23,05,41,7.30
2015,09,23,05,42,7.30
2015,09,23,05,43,7.20
2015,09,23,05,44,7.20
2015,09,23,05,45,7.20
2015,09,23,05,46,7.20
2015,09,23,05,47,7.20
2015,09,23,05,48,7.20
2015,09,23,05,49,7.20
2015,09,23,05,50,7.20
2015,09,23,05,51,7.20
2015,09,23,05,52,7.20
2015,09,23,05,53,7.20
2015,09,23,05,54,7.10
2015,09,23,05,55,7.20
2015,09,23,05,56,7.30
2015,09,23,05,57,7.40
2015,09,23,05,58,7.50
2015,09,23,05,59,7.60
2015,09,23,06,00,7.60
2015,09,23,06,01,7.60
2015,09,23,06,02,7.60
2015,09,23,06,03,7.50
2015,09,23,06,04,7.40
2015,09,23,06,05,7.30
2015,09,23,06,06,7.20
2015,09,23,06,07,7.20
2015,09,23,06,08,7.20
2015,09,23,06,09,7.10
2015,09,23,06,10,7.00
2015,09,23,06,11,7.00
2015,09,23,06,12,6.90
2015,09,23,06,13,6.90
2015,09,23,06,14,6.90
2015,09,23,06,15,6.80
2015,09,23,06,16,6.90
2015,09,23,06,17,7.00
2015,09,23,06,18,7.00
2015,09,23,06,19,7.00
2015,09,23,06,20,7.10
2015,09,23,06,21,7.10
2015,09,23,06,22,7.00
2015,09,23,06,23,7.00
2015,09,23,06,24,6.90
2015,09,23,06,25,6.90
2015,09,23,06,26,6.90
2015,09,23,06,27,7.00
2015,09,23,06,28,7.30
2015,09,23,06,29,7.30
2015,09,23,06,30,7.40
2015,09,23,06,31,7.30
2015,09,23,06,32,7.20
2015,09,23,06,33,7.10
2015,09,23,06,34,7.00
2015,09,23,06,35,6.90
2015,09,23,06,36,6.90
2015,09,23,06,37,7.00
2015,09,23,06,38,7.10
2015,09,23,06,39,7.20
2015,09,23,06,40,7.20
2015,09,23,06,41,7.20
2015,09,23,06,42,7.20
2015,09,23,06,43,7.20
2015,09,23,06,44,7.30
2015,09,23,06,45,7.30
2015,09,23,06,46,7.30
2015,09,23,06,47,7.20
2015,09,23,06,48,7.00
2015,09,23,06,49,6.90
2015,09,23,06,50,6.90
2015,09,23,06,51,6.90
2015,09,23,06,52,7.10
2015,09,23,06,53,7.20
2015,09,23,06,54,7.20
2015,09,23,06,55,7.30
2015,09,23,06,56,7.30
2015,09,23,06,57,7.30
2015,09,23,06,58,7.20
2015,09,23,06,59,7.10
2015,09,23,07,00,7.00
2015,09,23,07,01,6.90
2015,09,23,07,02,6.80
2015,09,23,07,03,6.80
2015,09,23,07,04,6.80
2015,09,23,07,05,6.80
2015,09,23,07,06,6.80
2015,09,23,07,07,6.90
2015,09,23,07,08,6.90
2015,09,23,07,09,6.90
2015,09,23,07,10,6.90
2015,09,23,07,11,6.90
2015,09,23,07,12,6.90
2015,09,23,07,13,6.90
2015,09,23,07,14,6.90
2015,09,23,07,15,6.90
2015,09,23,07,16,6.90
2015,09,23,07,17,6.90
2015,09,23,07,18,6.80
2015,09,23,07,19,6.80
2015,09,23,07,20,6.80
2015,09,23,07,21,6.90
2015,09,23,07,22,6.80
2015,09,23,07,23,6.80
2015,09,23,07,24,6.80
2015,09,23,07,25,6.90
2015,09,23,07,26,6.90
2015,09,23,07,27,6.90
2015,09,23,07,28,7.00
2015,09,23,07,29,6.90
2015,09,23,07,30,6.90
2015,09,23,07,31,6.90
2015,09,23,07,32,6.90
2015,09,23,07,33,6.80
2015,09,23,07,34,6.80
2015,09,23,07,35,6.80
2015,09,23,07,36,6.90
2015,09,23,07,37,6.90
2015,09,23,07,38,7.00
2015,09,23,07,39,7.00
2015,09,23,07,40,7.10
2015,09,23,07,41,7.20
2015,09,23,07,42,7.20
2015,09,23,07,43,7.20
2015,09,23,07,44,7.30
2015,09,23,07,45,7.30
2015,09,23,07,46,7.40
2015,09,23,07,47,7.50
2015,09,23,07,48,7.50
2015,09,23,07,49,7.60
2015,09,23,07,50,7.50
2015,09,23,07,51,7.50
2015,09,23,07,52,7.50
2015,09,23,07,53,7.50
2015,09,23,07,54,7.50
2015,09,23,07,55,7.50
2015,09,23,07,56,7.60
2015,09,23,07,57,7.60
2015,09,23,07,58,7.70
2015,09,23,07,59,7.80
2015,09,23,08,00,7.80
2015,09,23,08,01,7.90
2015,09,23,08,02,8.00
2015,09,23,08,03,8.00
2015,09,23,08,04,8.10
2015,09,23,08,05,8.10
2015,09,23,08,06,8.20
2015,09,23,08,07,8.30
2015,09,23,08,08,8.40
2015,09,23,08,09,8.50
2015,09,23,08,10,8.60
2015,09,23,08,11,8.60
2015,09,23,08,12,8.70
2015,09,23,08,13,8.70
2015,09,23,08,14,8.70
2015,09,23,08,15,8.80
2015,09,23,08,16,8.80
2015,09,23,08,17,8.80
2015,09,23,08,18,8.90
2015,09,23,08,19,8.90
2015,09,23,08,20,8.90
2015,09,23,08,21,8.90
2015,09,23,08,22,8.90
2015,09,23,08,23,8.90
2015,09,23,08,24,9.00
2015,09,23,08,25,9.00
2015,09,23,08,26,9.00
2015,09,23,08,27,9.10
2015,09,23,08,28,9.10
2015,09,23,08,29,9.10
2015,09,23,08,30,9.10
2015,09,23,08,31,9.20
2015,09,23,08,32,9.20
2015,09,23,08,33,9.20
2015,09,23,08,34,9.20
2015,09,23,08,35,9.30
2015,09,23,08,36,9.30
2015,09,23,08,37,9.30
2015,09,23,08,38,9.40
2015,09,23,08,39,9.40
2015,09,23,08,40,9.40
2015,09,23,08,41,9.40
2015,09,23,08,42,9.40
2015,09,23,08,43,9.50
2015,09,23,08,44,9.50
2015,09,23,08,45,9.50
2015,09,23,08,46,9.60
2015,09,23,08,47,9.60
2015,09,23,08,48,9.60
2015,09,23,08,49,9.60
2015,09,23,08,50,9.60
2015,09,23,08,51,9.60
2015,09,23,08,52,9.70
2015,09,23,08,53,9.70
2015,09,23,08,54,9.80
2015,09,23,08,55,9.80
2015,09,23,08,56,9.80
2015,09,23,08,57,9.80
2015,09,23,08,58,9.90
2015,09,23,08,59,9.90
2015,09,23,09,00,10.00
2015,09,23,09,01,10.10
2015,09,23,09,02,10.10
2015,09,23,09,03,10.20
2015,09,23,09,04,10.20
2015,09,23,09,05,10.30
2015,09,23,09,06,10.40
2015,09,23,09,07,10.50
2015,09,23,09,08,10.60
2015,09,23,09,09,10.70
2015,09,23,09,10,10.70
2015,09,23,09,11,10.80
2015,09,23,09,12,11.00
2015,09,23,09,13,11.10
2015,09,23,09,14,11.20
2015,09,23,09,15,11.40
2015,09,23,09,16,11.50
2015,09,23,09,17,11.70
2015,09,23,09,18,11.80
2015,09,23,09,19,11.90
2015,09,23,09,20,11.90
2015,09,23,09,21,12.00
2015,09,23,09,22,12.10
2015,09,23,09,23,12.00
2015,09,23,09,24,12.00
2015,09,23,09,25,11.90
2015,09,23,09,26,11.80
2015,09,23,09,27,11.70
2015,09,23,09,28,11.60
2015,09,23,09,29,11.60
2015,09,23,09,30,11.60
2015,09,23,09,31,11.60
2015,09,23,09,32,11.50
2015,09,23,09,33,11.50
2015,09,23,09,34,11.60
2015,09,23,09,35,11.60
2015,09,23,09,36,11.70
2015,09,23,09,37,11.80
2015,09,23,09,38,11.90
2015,09,23,09,39,12.00
2015,09,23,09,40,12.10
2015,09,23,09,41,12.10
2015,09,23,09,42,12.10
2015,09,23,09,43,12.20
2015,09,23,09,44,12.20
2015,09,23,09,45,12.20
2015,09,23,09,46,12.20
2015,09,23,09,47,12.20
2015,09,23,09,48,12.20
2015,09,23,09,49,12.20
2015,09,23,09,50,12.10
2015,09,23,09,51,12.00
2015,09,23,09,52,12.00
2015,09,23,09,53,11.90
2015,09,23,09,54,11.90
2015,09,23,09,55,11.80
2015,09,23,09,56,11.80
2015,09,23,09,57,11.90
2015,09,23,09,58,11.90
2015,09,23,09,59,12.00
2015,09,23,10,00,12.10
2015,09,23,10,01,12.10
2015,09,23,10,02,12.20
2015,09,23,10,03,12.20
2015,09,23,10,04,12.20
2015,09,23,10,05,12.20
2015,09,23,10,06,12.10
2015,09,23,10,07,12.20
2015,09,23,10,08,12.20
2015,09,23,10,09,12.20
2015,09,23,10,10,12.20
2015,09,23,10,11,12.20
2015,09,23,10,12,12.20
2015,09,23,10,13,12.20
2015,09,23,10,14,12.20
2015,09,23,10,15,12.10
2015,09,23,10,16,12.10
2015,09,23,10,17,12.10
2015,09,23,10,18,12.00
2015,09,23,10,19,12.00
2015,09,23,10,20,12.00
2015,09,23,10,21,12.10
2015,09,23,10,22,12.10
2015,09,23,10,23,12.20
2015,09,23,10,24,12.20
2015,09,23,10,25,12.30
2015,09,23,10,26,12.30
2015,09,23,10,27,12.30
2015,09,23,10,28,12.30
2015,09,23,10,29,12.40
2015,09,23,10,30,12.40
2015,09,23,10,31,12.50
2015,09,23,10,32,12.50
2015,09,23,10,33,12.60
2015,09,23,10,34,12.60
2015,09,23,10,35,12.60
2015,09,23,10,36,12.60
2015,09,23,10,37,12.60
2015,09,23,10,38,12.70
2015,09,23,10,39,12.70
2015,09,23,10,40,12.70
2015,09,23,10,41,12.70
2015,09,23,10,42,12.70
2015,09,23,10,43,12.80
2015,09,23,10,44,12.80
2015,09,23,10,45,12.80
2015,09,23,10,46,12.80
2015,09,23,10,47,12.80
2015,09,23,10,48,12.90
2015,09,23,10,49,12.90
2015,09,23,10,50,12.90
2015,09,23,10,51,12.90
2015,09,23,10,52,12.90
2015,09,23,10,53,12.90
2015,09,23,10,54,12.80
2015,09,23,10,55,12.80
2015,09,23,10,56,12.80
2015,09,23,10,57,12.80
2015,09,23,10,58,12.80
2015,09,23,10,59,12.90
2015,09,23,11,00,12.90
2015,09,23,11,01,12.90
2015,09,23,11,02,12.90
2015,09,23,11,03,12.90
2015,09,23,11,04,12.90
2015,09,23,11,05,12.90
2015,09,23,11,06,13.00
2015,09,23,11,07,13.00
2015,09,23,11,08,13.00
2015,09,23,11,09,12.90
2015,09,23,11,10,12.90
2015,09,23,11,11,12.90
2015,09,23,11,12,12.90
2015,09,23,11,13,12.90
2015,09,23,11,14,12.90
2015,09,23,11,15,12.90
2015,09,23,11,16,12.90
2015,09,23,11,17,12.90
2015,09,23,11,18,12.90
2015,09,23,11,19,12.90
2015,09,23,11,20,12.90
2015,09,23,11,21,12.90
2015,09,23,11,22,12.90
2015,09,23,11,23,12.90
2015,09,23,11,24,12.90
2015,09,23,11,25,12.90
2015,09,23,11,26,13.00
2015,09,23,11,27,13.00
2015,09,23,11,28,13.10
2015,09,23,11,29,13.10
2015,09,23,11,30,13.10
2015,09,23,11,31,13.00
2015,09,23,11,32,13.00
2015,09,23,11,33,13.10
2015,09,23,11,34,13.00
2015,09,23,11,35,13.00
2015,09,23,11,36,13.00
2015,09,23,11,37,13.10
2015,09,23,11,38,13.10
2015,09,23,11,39,13.10
2015,09,23,11,40,13.10
2015,09,23,11,41,13.10
2015,09,23,11,42,13.10
2015,09,23,11,43,13.20
2015,09,23,11,44,13.20
2015,09,23,11,45,13.30
2015,09,23,11,46,13.30
2015,09,23,11,47,13.40
2015,09,23,11,48,13.40
2015,09,23,11,49,13.40
2015,09,23,11,50,13.40
2015,09,23,11,51,13.40
2015,09,23,11,52,13.50
2015,09,23,11,53,13.50
2015,09,23,11,54,13.60
2015,09,23,11,55,13.60
2015,09,23,11,56,13.60
2015,09,23,11,57,13.70
2015,09,23,11,58,13.70
2015,09,23,11,59,13.70
2015,09,23,12,00,13.80
2015,09,23,12,01,13.80
2015,09,23,12,02,13.70
2015,09,23,12,03,13.70
2015,09,23,12,04,13.70
2015,09,23,12,05,13.70
2015,09,23,12,06,13.70
2015,09,23,12,07,13.60
2015,09,23,12,08,13.60
2015,09,23,12,09,13.60
2015,09,23,12,10,13.60
2015,09,23,12,11,13.60
2015,09,23,12,12,13.60
2015,09,23,12,13,13.50
2015,09,23,12,14,13.50
2015,09,23,12,15,13.50
2015,09,23,12,16,13.60
2015,09,23,12,17,13.60
2015,09,23,12,18,13.70
2015,09,23,12,19,13.70
2015,09,23,12,20,13.70
2015,09,23,12,21,13.70
2015,09,23,12,22,13.70
2015,09,23,12,23,13.70
2015,09,23,12,24,13.60
2015,09,23,12,25,13.60
2015,09,23,12,26,13.50
2015,09,23,12,27,13.40
2015,09,23,12,28,13.40
2015,09,23,12,29,13.40
2015,09,23,12,30,13.50
2015,09,23,12,31,13.50
2015,09,23,12,32,13.40
2015,09,23,12,33,13.40
2015,09,23,12,34,13.50
2015,09,23,12,35,13.50
2015,09,23,12,36,13.60
2015,09,23,12,37,13.60
2015,09,23,12,38,13.60
2015,09,23,12,39,13.60
2015,09,23,12,40,13.60
2015,09,23,12,41,13.70
2015,09,23,12,42,13.70
2015,09,23,12,43,13.80
2015,09,23,12,44,13.80
2015,09,23,12,45,13.80
2015,09,23,12,46,13.70
2015,09,23,12,47,13.70
2015,09,23,12,48,13.80
2015,09,23,12,49,13.80
2015,09,23,12,50,13.80
2015,09,23,12,51,13.80
2015,09,23,12,52,13.90
2015,09,23,12,53,13.90
2015,09,23,12,54,14.00
2015,09,23,12,55,14.00
2015,09,23,12,56,14.10
2015,09,23,12,57,14.10
2015,09,23,12,58,14.10
2015,09,23,12,59,14.10
2015,09,23,13,00,14.10
2015,09,23,13,01,14.10
2015,09,23,13,02,14.10
2015,09,23,13,03,14.00
2015,09,23,13,04,14.00
2015,09,23,13,05,14.00
2015,09,23,13,06,14.00
2015,09,23,13,07,14.10
2015,09,23,13,08,14.10
2015,09,23,13,09,14.10
2015,09,23,13,10,14.10
2015,09,23,13,11,14.20
2015,09,23,13,12,14.20
2015,09,23,13,13,14.20
2015,09,23,13,14,14.20
2015,09,23,13,15,14.30
2015,09,23,13,16,14.30
2015,09,23,13,17,14.30
2015,09,23,13,18,14.30
2015,09,23,13,19,14.30
2015,09,23,13,20,14.30
2015,09,23,13,21,14.30
2015,09,23,13,22,14.30
2015,09,23,13,23,14.30
2015,09,23,13,24,14.30
2015,09,23,13,25,14.30
2015,09,23,13,26,14.30
2015,09,23,13,27,14.30
2015,09,23,13,28,14.30
2015,09,23,13,29,14.30
2015,09,23,13,30,14.40
2015,09,23,13,31,14.40
2015,09,23,13,32,14.40
2015,09,23,13,33,14.40
2015,09,23,13,34,14.40
2015,09,23,13,35,14.50
2015,09,23,13,36,14.60
2015,09,23,13,37,14.60
2015,09,23,13,38,14.70
2015,09,23,13,39,14.70
2015,09,23,13,40,14.70
2015,09,23,13,41,14.80
2015,09,23,13,42,14.80
2015,09,23,13,43,14.90
2015,09,23,13,44,14.90
2015,09,23,13,45,15.00
2015,09,23,13,46,14.90
2015,09,23,13,47,15.00
2015,09,23,13,48,14.90
2015,09,23,13,49,14.90
2015,09,23,13,50,14.90
2015,09,23,13,51,14.90
2015,09,23,13,52,14.80
2015,09,23,13,53,14.80
2015,09,23,13,54,14.90
2015,09,23,13,55,14.90
2015,09,23,13,56,15.00
2015,09,23,13,57,15.00
2015,09,23,13,58,15.00
2015,09,23,13,59,15.00
2015,09,23,14,00,14.90
2015,09,23,14,01,14.80
2015,09,23,14,02,14.70
2015,09,23,14,03,14.70
2015,09,23,14,04,14.70
2015,09,23,14,05,14.70
2015,09,23,14,06,14.70
2015,09,23,14,07,14.70
2015,09,23,14,08,14.70
2015,09,23,14,09,14.70
2015,09,23,14,10,14.70
2015,09,23,14,11,14.70
2015,09,23,14,12,14.70
2015,09,23,14,13,14.70
2015,09,23,14,14,14.70
2015,09,23,14,15,14.70
2015,09,23,14,16,14.70
2015,09,23,14,17,14.80
2015,09,23,14,18,14.80
2015,09,23,14,19,14.80
2015,09,23,14,20,14.80
2015,09,23,14,21,14.80
2015,09,23,14,22,14.70
2015,09,23,14,23,14.80
2015,09,23,14,24,14.80
2015,09,23,14,25,14.80
2015,09,23,14,26,14.90
2015,09,23,14,27,14.90
2015,09,23,14,28,15.00
2015,09,23,14,29,15.00
2015,09,23,14,30,15.00
2015,09,23,14,31,15.00
2015,09,23,14,32,15.00
2015,09,23,14,33,15.00
2015,09,23,14,34,15.00
2015,09,23,14,35,15.00
2015,09,23,14,36,15.00
2015,09,23,14,37,15.00
2015,09,23,14,38,15.00
2015,09,23,14,39,15.00
2015,09,23,14,40,15.00
2015,09,23,14,41,15.00
2015,09,23,14,42,15.00
2015,09,23,14,43,15.00
2015,09,23,14,44,15.00
2015,09,23,14,45,15.00
2015,09,23,14,46,15.00
2015,09,23,14,47,15.00
2015,09,23,14,48,15.00
2015,09,23,14,49,15.00
2015,09,23,14,50,15.00
2015,09,23,14,51,15.00
2015,09,23,14,52,15.00
2015,09,23,14,53,15.00
2015,09,23,14,54,15.00
2015,09,23,14,55,15.00
2015,09,23,14,56,15.10
2015,09,23,14,57,15.20
2015,09,23,14,58,15.20
2015,09,23,14,59,15.20
2015,09,23,15,00,15.20
2015,09,23,15,01,15.20
2015,09,23,15,02,15.30
2015,09,23,15,03,15.40
2015,09,23,15,04,15.50
2015,09,23,15,05,15.60
2015,09,23,15,06,15.60
2015,09,23,15,07,15.60
2015,09,23,15,08,15.60
2015,09,23,15,09,15.60
2015,09,23,15,10,15.60
2015,09,23,15,11,15.60
2015,09,23,15,12,15.50
2015,09,23,15,13,15.50
2015,09,23,15,14,15.40
2015,09,23,15,15,15.50
2015,09,23,15,16,15.50
2015,09,23,15,17,15.50
2015,09,23,15,18,15.50
2015,09,23,15,19,15.50
2015,09,23,15,20,15.40
2015,09,23,15,21,15.50
2015,09,23,15,22,15.50
2015,09,23,15,23,15.50
2015,09,23,15,24,15.40
2015,09,23,15,25,15.40
2015,09,23,15,26,15.50
2015,09,23,15,27,15.60
2015,09,23,15,28,15.60
2015,09,23,15,29,15.60
2015,09,23,15,30,15.60
2015,09,23,15,31,15.60
2015,09,23,15,32,15.60
2015,09,23,15,33,15.60
2015,09,23,15,34,15.50
2015,09,23,15,35,15.50
2015,09,23,15,36,15.40
2015,09,23,15,37,15.40
2015,09,23,15,38,15.40
2015,09,23,15,39,15.30
2015,09,23,15,40,15.30
2015,09,23,15,41,15.30
2015,09,23,15,42,15.30
2015,09,23,15,43,15.20
2015,09,23,15,44,15.10
2015,09,23,15,45,15.10
2015,09,23,15,46,15.00
2015,09,23,15,47,15.00
2015,09,23,15,48,15.00
2015,09,23,15,49,15.00
2015,09,23,15,50,15.00
2015,09,23,15,51,15.00
2015,09,23,15,52,15.00
2015,09,23,15,53,15.00
2015,09,23,15,54,15.00
2015,09,23,15,55,15.00
2015,09,23,15,56,15.00
2015,09,23,15,57,15.00
2015,09,23,15,58,15.00
2015,09,23,15,59,15.00
2015,09,23,16,00,15.00
2015,09,23,16,01,15.00
2015,09,23,16,02,14.90
2015,09,23,16,03,14.80
2015,09,23,16,04,14.70
2015,09,23,16,05,14.70
2015,09,23,16,06,14.60
2015,09,23,16,07,14.50
2015,09,23,16,08,14.40
2015,09,23,16,09,14.40
2015,09,23,16,10,14.40
2015,09,23,16,11,14.30
2015,09,23,16,12,14.30
2015,09,23,16,13,14.20
2015,09,23,16,14,14.20
2015,09,23,16,15,14.20
2015,09,23,16,16,14.20
2015,09,23,16,17,14.10
2015,09,23,16,18,14.10
2015,09,23,16,19,14.10
2015,09,23,16,20,14.00
2015,09,23,16,21,13.90
2015,09,23,16,22,13.80
2015,09,23,16,23,13.80
2015,09,23,16,24,13.80
2015,09,23,16,25,13.80
2015,09,23,16,26,13.80
2015,09,23,16,27,13.70
2015,09,23,16,28,13.70
2015,09,23,16,29,13.70
2015,09,23,16,30,13.70
2015,09,23,16,31,13.70
2015,09,23,16,32,13.60
2015,09,23,16,33,13.60
2015,09,23,16,34,13.60
2015,09,23,16,35,13.60
2015,09,23,16,36,13.50
2015,09,23,16,37,13.50
2015,09,23,16,38,13.50
2015,09,23,16,39,13.50
2015,09,23,16,40,13.40
2015,09,23,16,41,13.40
2015,09,23,16,42,13.30
2015,09,23,16,43,13.30
2015,09,23,16,44,13.30
2015,09,23,16,45,13.20
2015,09,23,16,46,13.20
2015,09,23,16,47,13.20
2015,09,23,16,48,13.20
2015,09,23,16,49,13.20
2015,09,23,16,50,13.20
2015,09,23,16,51,13.20
2015,09,23,16,52,13.10
2015,09,23,16,53,13.10
2015,09,23,16,54,13.10
2015,09,23,16,55,13.00
2015,09,23,16,56,13.00
2015,09,23,16,57,13.00
2015,09,23,16,58,12.90
2015,09,23,16,59,12.90
2015,09,23,17,00,12.90
2015,09,23,17,01,12.90
2015,09,23,17,02,12.90
2015,09,23,17,03,12.90
2015,09,23,17,04,12.80
2015,09,23,17,05,12.80
2015,09,23,17,06,12.80
2015,09,23,17,07,12.80
2015,09,23,17,08,12.80
2015,09,23,17,09,12.80
2015,09,23,17,10,12.80
2015,09,23,17,11,12.80
2015,09,23,17,12,12.80
2015,09,23,17,13,12.80
2015,09,23,17,14,12.80
2015,09,23,17,15,12.80
2015,09,23,17,16,12.80
2015,09,23,17,17,12.70
2015,09,23,17,18,12.70
2015,09,23,17,19,12.70
2015,09,23,17,20,12.70
2015,09,23,17,21,12.80
2015,09,23,17,22,12.80
2015,09,23,17,23,12.80
2015,09,23,17,24,12.80
2015,09,23,17,25,12.80
2015,09,23,17,26,12.80
2015,09,23,17,27,12.80
2015,09,23,17,28,12.80
2015,09,23,17,29,12.90
2015,09,23,17,30,12.90
2015,09,23,17,31,12.90
2015,09,23,17,32,12.90
2015,09,23,17,33,13.00
2015,09,23,17,34,13.00
2015,09,23,17,35,13.00
2015,09,23,17,36,13.00
2015,09,23,17,37,13.00
2015,09,23,17,38,13.00
2015,09,23,17,39,13.00
2015,09,23,17,40,13.00
2015,09,23,17,41,13.00
2015,09,23,17,42,13.00